[[{"header":{"parameterUnit":"m.s-1","parameterCategory":1,"la1":30.2991,"la2":30.254,"lo1":-89.0895,"lo2":-89.0444,"dy":0.0017,"dx":0.0017,"nx":28,"ny":28,"refTime":"2025-11-09T09:00:00:Z","depth":0,"parameterNumber":2,"parameterNumberName":"U-component_of_WINDS"},"data":[0,0,0,0,0,0,0,0,0,0,0,0,0,0,0,0,0,0,0,0,0,0,0,0,0,0,0,0,0,0,0,0,0,0,0,0,0,0,0,0,0,0,0,0,0,0,0,0,0,0,0,0,0,0,0,0,0,0,-1.1729,-1.1729,0,-1.1754,-1.1754,-1.1755,-1.1708,-1.1706,-1.1704,-1.1703,-1.1732,-1.1734,-1.1736,0,0,0,0,0,0,0,0,0,0,0,0,0,-1.1641,-1.1642,-1.1729,-1.1729,-1.1729,-1.1754,-1.1754,-1.1755,-1.1708,-1.1706,-1.1704,-1.1702,-1.1731,-1.1734,-1.1736,0,0,0,0,0,0,0,0,0,0,0,0,0,-1.1674,-1.1643,-1.1729,-1.1709,-1.1707,-1.1754,-1.1754,-1.1755,-1.1708,-1.1706,-1.1703,-1.1701,-1.173,-1.1733,-1.1737,-1.1805,0,0,-1.1747,-1.1748,0,0,0,0,0,0,0,0,-1.1672,-1.1677,-1.1711,-1.171,-1.1709,-1.1725,-1.1734,-1.1772,-1.1709,-1.1708,-1.1703,-1.17,-1.1732,-1.1735,-1.1745,-1.1806,-1.1807,-1.1747,-1.1749,-1.1751,-1.1752,0,0,0,0,0,0,0,-1.167,-1.1676,-1.1739,-1.1712,-1.171,-1.1699,-1.1701,-1.1741,-1.1733,-1.1708,-1.1704,-1.1708,-1.173,-1.1742,-1.1745,-1.1808,-1.1747,-1.175,-1.1752,-1.1753,-1.1924,-1.1927,0,0,0,0,0,0,-1.167,-1.1674,-1.1738,-1.174,-1.1684,-1.1702,-1.1705,-1.1722,-1.1732,-1.1731,-1.171,-1.1706,-1.1737,-1.1741,-1.1746,-1.1825,-1.1751,-1.1754,-1.1756,-1.1922,-1.1925,-1.1927,0,0,0,0,0,0,-1.1668,-1.1676,-1.1737,-1.1706,-1.1713,-1.1706,-1.1726,-1.1724,-1.1735,-1.1734,-1.1732,-1.1723,-1.1735,-1.1741,-1.179,-1.1826,-1.1755,-1.1758,-1.1919,-1.1923,-1.1926,-1.1985,0,0,0,0,0,0,-1.1666,-1.1675,-1.1701,-1.1707,-1.1715,-1.178,-1.1729,-1.1726,-1.1741,-1.1735,-1.1745,-1.1745,-1.1734,-1.1785,-1.1793,-1.1829,-1.1761,-1.1915,-1.192,-1.1925,-1.198,-1.1991,-1.2,0,0,0,0,0,-1.1663,-1.1718,-1.1703,-1.1711,-1.1747,-1.1783,-1.1787,-1.1773,-1.1744,-1.177,-1.1768,-1.1745,-1.182,-1.179,-1.1799,-1.1837,-1.1913,-1.1919,-1.1925,-1.1976,-1.1989,-1.1999,0,0,0,0,0,0,-1.1719,-1.1718,-1.1702,-1.176,-1.1772,-1.1775,-1.1807,-1.1787,-1.1808,-1.1802,-1.1783,-1.1786,-1.1838,-1.1842,-1.1809,-1.1902,-1.1862,-1.187,-1.1898,-1.191,-1.1919,-1.1918,-1.1764,0,0,0,0,0,-1.1737,-1.1766,-1.1765,-1.1816,-1.1823,-1.1814,-1.1829,-1.1816,-1.1828,-1.1833,-1.1835,-1.1848,-1.1874,-1.1892,-1.1916,-1.198,-1.1981,-1.201,-1.2019,-1.2027,-1.2035,-1.2067,-1.208,-1.1946,-1.1946,-1.1946,0,0,-1.1777,-1.1781,-1.18,-1.1828,-1.1835,-1.1865,-1.1818,-1.1853,-1.1875,-1.1838,-1.1884,-1.1886,-1.1899,-1.1955,-1.198,-1.196,-1.2071,-1.2035,-1.2041,-1.2044,-1.2074,-1.2087,-1.2098,-1.195,-1.1949,-1.1949,0,0,-1.1866,-1.1871,-1.1914,-1.1922,-1.1933,-1.1926,-1.1936,-1.1942,-1.1941,-1.1986,-1.1959,-1.1985,-1.2031,-1.2041,-1.2052,-1.214,-1.2119,-1.2149,-1.22,-1.2232,-1.2243,-1.2252,-1.2283,-1.2295,-1.2156,-1.2156,-1.2156,0,-1.1914,-1.1958,-1.1939,-1.1975,-1.1987,-1.1953,-1.1997,-1.2005,-1.2024,-1.2034,-1.2011,-1.2066,-1.2073,-1.213,-1.2151,-1.2161,-1.2172,-1.2148,-1.2243,-1.2252,-1.226,-1.229,-1.2301,-1.216,-1.2159,-1.2159,-1.2158,0,-1.2017,-1.2048,-1.2081,-1.2098,-1.2114,-1.2154,-1.2141,-1.216,-1.2145,-1.2141,-1.2186,-1.2192,-1.2216,-1.2229,-1.2216,-1.2284,-1.2271,-1.2245,-1.2205,-1.2277,-1.2304,-1.2315,-1.2165,-1.2163,-1.2162,-1.2161,0,0,-1.2144,-1.2147,-1.216,-1.2167,-1.2175,-1.2198,-1.2236,-1.2258,-1.2274,-1.2287,-1.2318,-1.2357,-1.2332,-1.2345,-1.2332,-1.236,-1.2429,-1.2331,-1.2331,-1.2349,-1.2503,-1.2523,-1.2536,-1.2414,-1.2416,-1.2418,-1.2502,0,-1.2231,-1.2294,-1.2277,-1.234,-1.2368,-1.2335,-1.2367,-1.2375,-1.2372,-1.2395,-1.2391,-1.2418,-1.2385,-1.2392,-1.2418,-1.2415,-1.246,-1.2409,-1.2443,-1.2445,-1.2441,-1.2551,-1.2572,-1.2651,-1.2513,-1.2515,-1.2516,0,-1.2341,-1.2357,-1.2423,-1.2424,-1.2435,-1.2465,-1.2482,-1.2505,-1.2513,-1.2509,-1.2521,-1.2502,-1.2539,-1.2497,-1.2547,-1.2512,-1.2525,-1.2526,-1.2528,-1.2531,-1.2485,-1.2557,-1.2676,-1.2688,-1.2533,-1.2532,-1.253,0,-1.2427,-1.2464,-1.2508,-1.2514,-1.2518,-1.2539,-1.2541,-1.2547,-1.2561,-1.2577,-1.2585,-1.2606,-1.2617,-1.2633,-1.262,-1.259,-1.2671,-1.2629,-1.2669,-1.2669,-1.2688,-1.2687,-1.2811,-1.2696,-1.2696,-1.2695,-1.2695,0,-1.2526,-1.2568,-1.2546,-1.2573,-1.2618,-1.2597,-1.2643,-1.2641,-1.2646,-1.2673,-1.2645,-1.2671,-1.2651,-1.2675,-1.2665,-1.2707,-1.2712,-1.2709,-1.2706,-1.2712,-1.2713,-1.2721,-1.2715,-1.2699,-1.2698,-1.2697,-1.2697,0,-1.263,-1.2617,-1.2662,-1.266,-1.2661,-1.2694,-1.2693,-1.2717,-1.271,-1.2744,-1.275,-1.274,-1.2766,-1.2754,-1.2782,-1.2775,-1.2829,-1.2819,-1.2826,-1.2823,-1.2864,-1.286,-1.2998,-1.3014,-1.2888,-1.289,-1.2891,0,-1.2694,-1.2725,-1.2726,-1.274,-1.2744,-1.2769,-1.2782,-1.2762,-1.2777,-1.2788,-1.2811,-1.2834,-1.2852,-1.2895,-1.289,-1.2911,-1.29,-1.2947,-1.2904,-1.2908,-1.2901,-1.2899,-1.2902,-1.2956,-1.2958,-1.2959,-1.296,0,-1.281,-1.2802,-1.2821,-1.2838,-1.2854,-1.2866,-1.2877,-1.2891,-1.2871,-1.2889,-1.2914,-1.2928,-1.2954,-1.2978,-1.2995,-1.2998,-1.2976,-1.2973,-1.2983,-1.299,-1.2993,-1.2992,-1.285,-1.2971,-1.297,-1.2969,-1.2968,-1.2968,-1.2896,-1.2921,-1.2925,-1.2947,-1.2952,-1.2962,-1.2984,-1.2979,-1.3,-1.3019,-1.3006,-1.3036,-1.3042,-1.3063,-1.3068,-1.3091,-1.3072,-1.3088,-1.3091,-1.3095,-1.3101,-1.2989,-1.3094,-1.3094,-1.3093,-1.3093,-1.3093,0,-1.3011,-1.301,-1.3031,-1.3045,-1.3062,-1.3038,-1.3047,-1.3063,-1.3089,-1.3096,-1.3113,-1.3141,-1.3163,-1.3159,-1.3179,-1.3198,-1.3188,-1.3204,-1.3202,-1.3203,-1.3116,-1.3105,-1.3211,-1.3211,-1.3211,-1.3211,-1.3211,-1.3211,-1.3072,-1.3113,-1.3104,-1.3147,-1.3146,-1.3174,-1.3181,-1.319,-1.3195,-1.3227,-1.3245,-1.3241,-1.3243,-1.3262,-1.3281,-1.3279,-1.3288,-1.3307,-1.3302,-1.3221,-1.3209,-1.3198,-1.3188,-1.3309,-1.3309,-1.3387,-1.3387,-1.3388]},{"header":{"parameterUnit":"m.s-1","parameterCategory":1,"la1":30.2991,"la2":30.254,"lo1":-89.0895,"lo2":-89.0444,"dy":0.0017,"dx":0.0017,"nx":28,"ny":28,"refTime":"2025-11-09T09:00:00:Z","depth":0,"parameterNumber":3,"parameterNumberName":"V-component_of_WINDS"},"data":[0,0,0,0,0,0,0,0,0,0,0,0,0,0,0,0,0,0,0,0,0,0,0,0,0,0,0,0,0,0,0,0,0,0,0,0,0,0,0,0,0,0,0,0,0,0,0,0,0,0,0,0,0,0,0,0,0,0,-7.7751,-7.7753,0,-7.7906,-7.7908,-7.791,-7.7788,-7.7782,-7.7777,-7.7772,-7.7924,-7.7933,-7.7941,0,0,0,0,0,0,0,0,0,0,0,0,0,-7.7341,-7.735,-7.7751,-7.7753,-7.7755,-7.7906,-7.7908,-7.791,-7.7788,-7.7782,-7.7776,-7.777,-7.7921,-7.7932,-7.7942,0,0,0,0,0,0,0,0,0,0,0,0,0,-7.751,-7.7352,-7.7751,-7.7713,-7.7711,-7.7906,-7.7908,-7.7911,-7.779,-7.7782,-7.7774,-7.7767,-7.7918,-7.7931,-7.7944,-7.8182,0,0,-7.7984,-7.799,0,0,0,0,0,0,0,0,-7.7501,-7.7525,-7.7716,-7.7716,-7.7714,-7.782,-7.7819,-7.8002,-7.7792,-7.776,-7.7772,-7.7763,-7.7895,-7.791,-7.7956,-7.8189,-7.8196,-7.7986,-7.7994,-7.7999,-7.8003,0,0,0,0,0,0,0,-7.7489,-7.7518,-7.7812,-7.7719,-7.7718,-7.7685,-7.77,-7.7853,-7.7869,-7.7762,-7.7753,-7.7774,-7.7893,-7.7943,-7.7958,-7.8198,-7.7985,-7.7997,-7.8005,-7.8011,-7.8633,-7.8641,0,0,0,0,0,0,-7.7482,-7.7509,-7.7807,-7.7817,-7.7586,-7.7699,-7.7716,-7.7794,-7.7867,-7.7871,-7.778,-7.7767,-7.7924,-7.7943,-7.7963,-7.8246,-7.7999,-7.8012,-7.8019,-7.8624,-7.8635,-7.8644,0,0,0,0,0,0,-7.7474,-7.751,-7.7801,-7.7661,-7.7695,-7.7714,-7.7802,-7.7801,-7.7851,-7.7881,-7.7882,-7.783,-7.7919,-7.7945,-7.8129,-7.825,-7.8018,-7.803,-7.8614,-7.8627,-7.8639,-7.8816,0,0,0,0,0,0,-7.7463,-7.7508,-7.7601,-7.7664,-7.7704,-7.7967,-7.781,-7.7809,-7.7875,-7.786,-7.7928,-7.7931,-7.7915,-7.811,-7.8142,-7.8264,-7.804,-7.8603,-7.862,-7.8635,-7.8799,-7.8833,-7.8862,0,0,0,0,0,-7.7449,-7.7643,-7.7606,-7.7643,-7.7821,-7.7974,-7.7997,-7.7976,-7.7886,-7.7978,-7.7997,-7.7929,-7.8232,-7.813,-7.8165,-7.8293,-7.8596,-7.8615,-7.8634,-7.8785,-7.8826,-7.8861,0,0,0,0,0,0,-7.7592,-7.7651,-7.761,-7.7832,-7.79,-7.7954,-7.8069,-7.802,-7.8113,-7.8095,-7.8062,-7.8079,-7.8272,-7.8301,-7.8186,-7.8526,-7.8399,-7.8426,-7.8501,-7.8541,-7.8572,-7.856,-7.8051,0,0,0,0,0,-7.7649,-7.7772,-7.7816,-7.8007,-7.8043,-7.8051,-7.8117,-7.8095,-7.8163,-7.819,-7.8222,-7.8288,-7.8398,-7.8471,-7.8573,-7.8802,-7.8814,-7.8907,-7.8939,-7.8964,-7.8988,-7.9109,-7.9151,-7.8707,-7.8707,-7.8706,0,0,-7.7769,-7.7816,-7.7895,-7.8037,-7.8086,-7.8212,-7.8075,-7.8214,-7.8305,-7.821,-7.8387,-7.8413,-7.8484,-7.8691,-7.8784,-7.8721,-7.9113,-7.8989,-7.9009,-7.9019,-7.9133,-7.9175,-7.9213,-7.872,-7.8717,-7.8715,0,0,-7.8051,-7.81,-7.8264,-7.8317,-7.8395,-7.8398,-7.8438,-7.85,-7.8514,-7.8691,-7.8622,-7.8729,-7.8919,-7.8972,-7.9024,-7.9326,-7.9266,-7.9359,-7.9523,-7.9642,-7.9677,-7.9708,-7.9814,-7.9853,-7.9383,-7.9384,-7.9384,0,-7.8189,-7.8378,-7.8354,-7.8498,-7.8561,-7.8482,-7.8646,-7.8698,-7.8804,-7.8849,-7.8777,-7.9013,-7.9055,-7.9273,-7.9347,-7.9392,-7.9434,-7.9352,-7.9674,-7.9705,-7.9733,-7.9834,-7.9874,-7.9394,-7.9393,-7.9392,-7.9391,0,-7.8543,-7.8675,-7.8797,-7.8905,-7.8981,-7.9135,-7.9131,-7.9211,-7.9183,-7.9193,-7.9373,-7.9421,-7.9532,-7.9581,-7.9554,-7.9796,-7.9754,-7.9679,-7.955,-7.9787,-7.9881,-7.992,-7.941,-7.9406,-7.9403,-7.94,0,0,-7.892,-7.9012,-7.9058,-7.9105,-7.9184,-7.9284,-7.9432,-7.9543,-7.9611,-7.9686,-7.9809,-7.9971,-7.9902,-7.9961,-7.9938,-8.0043,-8.0277,-7.9955,-7.9956,-8.0012,-8.0544,-8.0599,-8.0645,-8.0238,-8.0245,-8.0251,-8.0537,0,-7.9205,-7.9467,-7.9449,-7.9694,-7.9814,-7.974,-7.9869,-7.993,-7.9944,-8.0045,-8.0058,-8.0174,-8.0075,-8.011,-8.021,-8.0227,-8.0383,-8.0206,-8.0349,-8.0354,-8.0333,-8.0694,-8.0754,-8.1022,-8.0574,-8.058,-8.0585,0,-7.9573,-7.9664,-7.9922,-7.9982,-8.0032,-8.0149,-8.0247,-8.0346,-8.0413,-8.0415,-8.0481,-8.0441,-8.0587,-8.0455,-8.0655,-8.0536,-8.0592,-8.061,-8.0619,-8.0631,-8.0484,-8.0715,-8.1107,-8.1147,-8.0643,-8.0638,-8.0634,0,-7.9821,-8.0007,-8.0185,-8.0228,-8.0303,-8.0387,-8.0421,-8.0481,-8.0548,-8.0633,-8.0675,-8.0776,-8.0831,-8.0908,-8.0895,-8.08,-8.1099,-8.0966,-8.1102,-8.1103,-8.1168,-8.1164,-8.1575,-8.1207,-8.1206,-8.1205,-8.1204,0,-8.0141,-8.0302,-8.0298,-8.0408,-8.0584,-8.056,-8.0735,-8.0759,-8.0813,-8.0923,-8.0865,-8.0969,-8.0946,-8.1049,-8.1039,-8.1206,-8.1231,-8.1235,-8.123,-8.124,-8.124,-8.1276,-8.1257,-8.1216,-8.1214,-8.1211,-8.121,0,-8.0448,-8.0453,-8.0642,-8.0698,-8.0715,-8.0843,-8.0889,-8.0991,-8.0999,-8.114,-8.1172,-8.1184,-8.1303,-8.1297,-8.1431,-8.1424,-8.1629,-8.1602,-8.1607,-8.1601,-8.1738,-8.1725,-8.2186,-8.2245,-8.184,-8.1843,-8.1847,0,-8.0652,-8.0774,-8.0844,-8.0915,-8.0956,-8.1071,-8.1139,-8.112,-8.1193,-8.1278,-8.1369,-8.1483,-8.1572,-8.1764,-8.1783,-8.1885,-8.186,-8.2014,-8.1874,-8.188,-8.1861,-8.1854,-8.1865,-8.2042,-8.2046,-8.205,-8.2053,0,-8.1013,-8.1009,-8.1112,-8.1215,-8.1299,-8.1379,-8.1451,-8.1512,-8.15,-8.1585,-8.1706,-8.1776,-8.1913,-8.2026,-8.2122,-8.2154,-8.2102,-8.2097,-8.2134,-8.2145,-8.2142,-8.2145,-8.1681,-8.2086,-8.2083,-8.208,-8.2079,-8.2077,-8.1274,-8.1379,-8.1444,-8.156,-8.1613,-8.1682,-8.1781,-8.1802,-8.1904,-8.2015,-8.1997,-8.2133,-8.2193,-8.2318,-8.236,-8.2463,-8.2408,-8.2462,-8.2475,-8.2489,-8.2504,-8.2127,-8.2481,-8.248,-8.2479,-8.2478,-8.2478,0,-8.1632,-8.167,-8.1777,-8.1881,-8.1972,-8.1916,-8.1993,-8.2072,-8.2193,-8.2256,-8.2346,-8.2484,-8.2593,-8.2621,-8.2724,-8.2802,-8.278,-8.283,-8.2823,-8.2831,-8.2548,-8.2505,-8.2846,-8.2846,-8.2846,-8.2845,-8.2845,-8.2845,-8.1828,-8.2002,-8.2005,-8.2204,-8.224,-8.2374,-8.2423,-8.2486,-8.2536,-8.2694,-8.2785,-8.2803,-8.2851,-8.2957,-8.3054,-8.3059,-8.3099,-8.3158,-8.3154,-8.2888,-8.2852,-8.2816,-8.2776,-8.3168,-8.3168,-8.3428,-8.3431,-8.3433]}]]